DateTimeUTC,F1_A11,F1_S11,BsB_S11,BsG_S11,BsR_S11,BbsB_S11,BbsG_S11,BbsR_S11,BaB_A11,BaG_A11,BaR_A11,Tu_S11,T_S11,Uu_S11,U_S11,P_S11,T1_A11
2021-09-16T05:00:00Z,00000200,21000000,,,,,,,0000.00,-000.30,-000.28,18.2,25.4,,00.0,0653.5,31.1
2021-09-16T05:01:00Z,00000200,21000000,,,,,,,-000.07,0000.01,0000.10,18.2,25.5,,00.0,0653.5,31.1
2021-09-16T05:02:00Z,00000200,21000000,,,,,,,0000.06,-000.08,-000.48,18.2,25.5,,00.0,0653.5,31.0
2021-09-16T05:03:00Z,00000200,61000000,,,,,,,-000.35,-000.13,0000.18,18.2,25.5,,00.0,0653.5,31.0
2021-09-16T05:04:00Z,00000200,41000000,0000.01,-000.03,0000.22,0000.17,-000.11,0000.25,0000.42,-000.22,-000.13,18.3,25.2,,00.0,0654.2,31.0
2021-09-16T05:05:00Z,00000200,01000000,-000.78,0000.07,-000.03,0000.31,-000.06,-000.17,-000.21,0000.24,-000.08,18.3,25.1,,00.0,0654.3,31.0
2021-09-16T05:06:00Z,00000200,01000000,-000.05,-000.11,-000.12,-000.10,-000.03,0000.20,0000.03,-000.14,0000.19,18.2,25.1,,00.0,0654.2,31.0
2021-09-16T05:07:00Z,00000200,01000000,-000.08,0000.03,0000.03,-000.30,-000.06,0000.40,0000.07,-000.05,-000.03,18.2,25.1,,00.0,0654.2,31.0
2021-09-16T05:08:00Z,00000200,01000000,0000.27,-000.30,0000.04,0000.80,-000.14,0000.27,0000.07,0000.06,0000.25,18.1,25.0,,00.0,0654.2,31.0
2021-09-16T05:09:00Z,00000200,01000000,0000.67,-000.02,0000.21,0000.49,-000.10,0000.32,-000.09,0000.13,-000.22,18.1,25.0,,00.0,0654.1,31.0
2021-09-16T05:10:00Z,00000200,01000000,-000.48,0000.08,-000.13,0000.52,-000.05,0000.14,0000.13,-000.09,0000.31,18.1,25.0,,00.0,0654.1,31.0
2021-09-16T05:11:00Z,00000200,01000000,-000.42,0000.10,0000.03,0000.32,0000.03,-000.21,0000.35,0000.48,-000.02,18.1,25.0,,00.0,0654.0,31.0
2021-09-16T05:12:00Z,00000200,01000000,0000.17,0000.21,-000.06,0000.10,-000.26,-000.14,0000.26,0000.11,0000.07,18.2,25.0,,00.0,0654.0,31.0
2021-09-16T05:13:00Z,00000200,01000000,0000.36,0000.03,-000.01,0000.34,-000.01,-000.06,0000.04,-000.33,0000.40,18.3,25.1,,00.0,0654.0,31.1
2021-09-16T05:14:00Z,00000200,01000000,0000.25,-000.07,-000.16,-000.58,0000.05,-000.25,0000.03,0000.26,0000.03,18.4,25.1,,00.0,0654.0,31.1
2021-09-16T05:15:00Z,00000200,01000000,-001.05,0000.07,0000.16,0000.23,-000.25,-000.12,0000.22,0000.24,-000.26,18.5,25.2,,00.0,0654.0,31.1
2021-09-16T05:16:00Z,00000200,01000000,-000.13,0000.09,0000.03,0000.05,-000.12,0000.17,0000.06,0000.01,0000.47,18.6,25.2,,00.0,0654.0,31.1
2021-09-16T05:17:00Z,00000200,01000000,0000.03,-000.14,0000.06,-000.13,-000.06,-000.02,-000.25,-000.18,0000.07,18.7,25.2,,00.0,0654.0,31.1
2021-09-16T05:18:00Z,00000200,01000000,0000.52,-000.11,0000.16,-000.08,-000.24,0000.38,0000.02,0000.15,-000.35,18.6,25.3,,00.0,0653.9,31.1
2021-09-16T05:19:00Z,00000200,01000000,-000.05,-000.28,0000.22,0000.39,0000.15,0000.47,0000.06,0000.25,-000.15,18.6,25.2,,00.0,0653.9,31.1
2021-09-16T05:20:00Z,00000200,01000000,0000.14,0000.47,-000.08,-000.21,0000.21,0000.40,0000.65,0000.63,0000.58,18.5,25.2,,00.0,0653.8,31.1
2021-09-16T05:21:00Z,00000200,01000000,-000.22,0000.20,-000.15,0000.19,0000.01,-000.10,-000.03,0000.00,0000.13,18.5,25.2,,00.0,0653.8,31.0
2021-09-16T05:22:00Z,00000200,01000000,0000.75,-000.19,0000.01,0000.29,0000.15,0000.13,0000.11,-000.14,-000.03,18.4,25.1,,00.0,0653.7,31.0
2021-09-16T05:23:00Z,00000200,01000000,-000.11,0000.31,-000.04,0000.22,-000.06,0000.14,0000.46,0000.05,-000.05,18.4,25.1,,00.0,0653.7,31.0
2021-09-16T05:24:00Z,00000200,01000000,-000.39,-000.20,0000.13,-000.24,-000.08,0000.30,0000.08,0000.11,0000.40,18.3,25.1,,00.0,0653.6,31.0
2021-09-16T05:25:00Z,00000200,01000000,0000.16,-000.08,-000.08,-000.03,0000.14,0000.04,0000.45,0000.82,0000.55,18.3,25.0,,00.0,0653.6,31.0
2021-09-16T05:26:00Z,00000200,01000000,-000.08,-000.08,0000.17,-000.32,0000.11,0000.11,0000.37,-000.02,-000.07,18.3,25.1,,00.0,0653.5,31.0
2021-09-16T05:27:00Z,00000200,01000000,0000.46,0000.03,0000.38,-000.06,0000.08,0000.18,-000.04,0000.67,0000.23,18.4,25.1,,00.0,0653.5,31.0
2021-09-16T05:28:00Z,00000200,01000000,0000.11,-000.09,0000.32,0000.45,-000.12,0000.35,0000.08,-000.24,0000.22,18.5,25.2,,00.0,0653.5,31.1
2021-09-16T05:29:00Z,00000200,01000000,0000.72,0000.26,0000.09,0000.37,0000.04,0000.26,-000.03,0000.05,-000.28,18.6,25.2,,00.0,0653.5,31.1
2021-09-16T05:30:00Z,00000200,01000000,0000.16,0000.32,0000.03,0000.14,0000.15,0000.21,-000.21,0000.04,0000.10,18.7,25.2,,00.0,0653.5,31.1
2021-09-16T05:31:00Z,00000200,01000000,0000.15,0000.13,-000.20,-000.02,0000.25,-000.26,-000.11,-000.23,-000.06,18.7,25.3,,00.0,0653.5,31.1
2021-09-16T05:32:00Z,00000200,01000000,0000.27,-000.01,0000.08,0000.01,0000.11,-000.01,0000.30,0000.04,0000.03,18.6,25.2,,00.0,0653.5,31.1
2021-09-16T05:33:00Z,00000200,01000000,0000.16,0000.21,0000.21,0000.41,-000.27,-000.17,-000.29,-000.11,-000.57,18.6,25.2,,00.0,0653.4,31.1
2021-09-16T05:34:00Z,00000200,01000000,-000.46,0000.20,0000.17,-000.01,0000.11,0000.43,0000.55,0000.06,0000.26,18.5,25.2,,00.0,0653.4,31.0
2021-09-16T05:35:00Z,00000200,01000000,0000.46,0000.13,-000.02,-000.01,-000.08,0000.13,-000.19,-000.40,0000.02,18.5,25.2,,00.0,0653.4,31.0
2021-09-16T05:36:00Z,00000200,01000000,0000.29,0000.31,0000.49,0000.09,0000.25,0000.12,0000.07,0000.86,0000.30,18.4,25.1,,00.0,0653.3,31.0
2021-09-16T05:37:00Z,00000200,01000000,-000.99,0000.52,-000.01,0000.29,-000.13,0000.23,-000.01,-000.26,0000.07,18.3,25.1,,00.0,0653.3,31.0
2021-09-16T05:38:00Z,00000200,01000000,0000.34,0000.36,0000.15,-000.29,-000.06,-000.04,0000.29,-000.22,-000.10,18.3,25.1,,00.0,0653.2,31.0
2021-09-16T05:39:00Z,00000200,01000000,0000.85,0000.26,-000.17,0000.02,0000.25,0000.17,0000.11,0000.02,0000.13,18.2,25.0,,00.0,0653.2,31.0
2021-09-16T05:40:00Z,00000200,01000000,0000.14,0000.15,0000.09,0000.22,0000.10,0000.08,0000.11,0000.23,0000.18,18.2,25.0,,00.0,0653.2,31.0
2021-09-16T05:41:00Z,00000200,01000000,-000.05,0000.33,-000.14,0000.49,0000.01,-000.32,0000.33,0000.17,0000.10,18.3,25.0,,00.0,0653.2,31.0
2021-09-16T05:42:00Z,00000200,01000000,0000.77,0000.10,0000.22,-000.46,0000.06,0000.33,-000.01,0000.28,0000.25,18.4,25.1,,00.0,0653.2,31.0
2021-09-16T05:43:00Z,00000200,01000000,0000.44,0000.11,0000.05,-000.18,0000.18,0000.08,0000.02,0000.29,0000.20,18.4,25.1,,00.0,0653.2,31.0
2021-09-16T05:44:00Z,00000200,01000000,-000.10,-000.02,-000.04,0000.35,-000.06,-000.03,0000.14,-000.17,0000.22,18.5,25.2,,00.0,0653.2,31.1
2021-09-16T05:45:00Z,00000200,01000000,0000.61,-000.12,0000.20,-000.11,-000.29,-000.02,0000.08,0000.31,-000.16,18.6,25.2,,00.0,0653.2,31.1
2021-09-16T05:46:00Z,00000200,01000000,0000.28,0000.09,-000.37,0000.40,-000.08,-000.32,0000.09,0000.26,-000.09,18.7,25.2,,00.0,0653.2,31.1
2021-09-16T05:47:00Z,00000200,01000000,0000.34,-000.06,0000.03,-000.32,0000.20,0000.08,0000.13,-000.33,0000.44,18.7,25.2,,00.0,0653.1,31.1
2021-09-16T05:48:00Z,00000200,01000000,-000.28,0000.67,0000.04,0000.03,-000.01,0000.13,0000.03,0000.35,0000.05,18.6,25.2,,00.0,0653.1,31.1
2021-09-16T05:49:00Z,00000200,01000000,0000.61,0000.24,0000.27,0000.29,0000.02,0000.48,0000.39,0000.57,0000.11,18.6,25.2,,00.0,0653.0,31.0
2021-09-16T05:50:00Z,00000200,01000000,-000.21,0000.16,0000.12,-000.14,0000.26,0000.15,0000.24,-000.14,0000.13,18.5,25.2,,00.0,0653.0,31.0
2021-09-16T05:51:00Z,00000200,01000000,0000.17,0000.31,-000.01,0000.16,0000.16,0000.09,0000.26,0000.02,-000.16,18.4,25.1,,00.0,0652.9,31.0
2021-09-16T05:52:00Z,00000200,01000000,0000.85,0000.22,-000.07,-000.57,-000.06,0000.03,0000.16,0000.24,0000.42,18.4,25.1,,00.0,0652.9,31.0
2021-09-16T05:53:00Z,00000200,01000000,0000.37,0000.27,0000.02,0000.14,0000.02,-000.05,0000.43,0000.23,-000.34,18.3,25.1,,00.0,0652.8,31.0
2021-09-16T05:54:00Z,00000200,01000000,0000.46,0000.18,-000.05,0000.06,0000.09,0000.32,-000.10,-000.10,0000.31,18.3,25.0,,00.0,0652.8,31.0
2021-09-16T05:55:00Z,00000200,01000000,0000.56,0000.28,0000.17,0000.35,0000.13,0000.17,0000.31,0000.45,-000.00,18.3,25.0,,00.0,0652.8,31.0
2021-09-16T05:56:00Z,00000200,01000000,0000.87,0000.27,0000.14,-000.11,0000.05,0000.14,0000.09,0000.22,0000.42,18.3,25.0,,00.0,0652.8,31.0
2021-09-16T05:57:00Z,00000200,41000000,,,,,,,0000.14,-000.03,-000.29,18.4,25.1,,00.0,0652.8,31.0
2021-09-16T05:58:00Z,00000200,61000000,,,,,,,-000.21,0000.05,0000.53,18.1,25.3,,00.0,0651.8,31.1
2021-09-16T05:59:00Z,00000200,21000000,,,,,,,0000.18,0000.25,-000.10,18.2,25.4,,00.0,0651.8,31.1
